Location: Canazei
(46.4667°N, 11.7667°E)
Time: 05:23:28
(UTC+00:00)

Cosmos 1470 - Pass Details

Date: 21 April 2021
Orbit: 519 x 542 km, 82.5° (Epoch: 14 May)

Event Time Altitude Azimuth Distance (km) Brightness Sun altitude
Rises 02:41:06 0° 358° (N) 2,658 6.8 -15.2°
Reaches altitude 10° 02:43:22 10° 7° (N) 1,764 6.0 -14.9°
Maximum altitude 02:46:58 36° 75° (ENE) 837 4.4 -14.4°
Drops below altitude 10° 02:50:33 10° 144° (SE) 1,753 5.4 -13.9°
Sets 02:52:48 0° 153° (SSE) 2,639 6.2 -13.6°
